FW7515 Weather Reports


Display with metric or nautical units.
time (UTC)temp
F
wind
direction
speed
MPH
gust
MPH
rain 1hr
in
rain 24hr
in
rain mn
in
humidity
%
barometer
mb
20260906235055 98 148 3.0 7.0 0.00 0.00 0.00 39 1010.8
20260906234533 98 124 4.0 10.0 0.00 0.00 0.00 39 1011.0
20260906234031 98 111 4.0 7.0 0.00 0.00 0.00 39 1011.0
20260906233528 98 86 5.0 10.0 0.00 0.00 0.00 39 1011.0
20260906233026 99 123 2.0 4.0 0.00 0.00 0.00 39 1011.1
20260906232605 99 160 2.0 7.0 0.00 0.00 0.00 39 1011.0
20260906232042 99 139 2.0 8.0 0.00 0.00 0.00 39 1011.0
20260906231520 99 108 5.0 10.0 0.00 0.00 0.00 40 1011.0
20260906231019 99 115 4.0 7.0 0.00 0.00 0.00 39 1011.1
20260906230516 99 112 3.0 7.0 0.00 0.00 0.00 39 1011.0
20260906230035 99 119 4.0 8.0 0.00 0.00 0.00 38 1011.0
20260906225533 99 112 4.0 9.0 0.00 0.00 0.00 38 1011.1
20260906225031 100 114 5.0 10.0 0.00 0.00 0.00 38 1011.1
20260906224529 99 131 5.0 11.0 0.00 0.00 0.00 39 1011.1
20260906224046 99 83 4.0 8.0 0.00 0.00 0.00 39 1011.0
20260906223525 100 76 4.0 9.0 0.00 0.00 0.00 39 1011.1
20260906223024 100 97 4.0 8.0 0.00 0.00 0.00 39 1011.2
20260906222521 102 147 3.0 7.0 0.00 0.00 0.00 37 1011.3
20260906222040 101 175 3.0 5.0 0.00 0.00 0.00 37 1011.2
20260906221518 101 135 2.0 6.0 0.00 0.00 0.00 38 1011.3
20260906221016 101 190 3.0 6.0 0.00 0.00 0.00 38 1011.3
20260906220536 100 110 2.0 6.0 0.00 0.00 0.00 38 1011.5
20260906220052 100 139 3.0 7.0 0.00 0.00 0.00 38 1011.5
20260906215531 99 96 3.0 5.0 0.00 0.00 0.00 40 1011.4
20260906215028 98 89 5.0 11.0 0.00 0.00 0.00 40 1011.6
20260906214526 99 89 5.0 10.0 0.00 0.00 0.00 40 1011.5
20260906214024 99 92 5.0 11.0 0.00 0.00 0.00 40 1011.6
20260906213542 99 85 6.0 12.0 0.00 0.00 0.00 40 1011.6
20260906213020 98 93 4.0 8.0 0.00 0.00 0.00 40 1011.7
20260906212518 99 87 5.0 10.0 0.00 0.00 0.00 40 1011.8
20260906212016 99 90 5.0 9.0 0.00 0.00 0.00 39 1011.9
20260906211534 100 112 4.0 11.0 0.00 0.00 0.00 39 1012.1
20260906211032 100 92 4.0 9.0 0.00 0.00 0.00 39 1012.0
20260906210529 101 108 3.0 7.0 0.00 0.00 0.00 38 1012.0
20260906210047 101 160 3.0 7.0 0.00 0.00 0.00 38 1012.1
20260906205525 101 142 4.0 9.0 0.00 0.00 0.00 38 1012.2
20260906205043 100 143 4.0 8.0 0.00 0.00 0.00 38 1012.3
20260906204520 100 119 4.0 9.0 0.00 0.00 0.00 39 1012.4
20260906204039 100 98 5.0 9.0 0.00 0.00 0.00 39 1012.4
20260906203516 99 83 3.0 6.0 0.00 0.00 0.00 40 1012.3
20260906203035 99 78 5.0 9.0 0.00 0.00 0.00 39 1012.4
20260906202533 99 99 5.0 13.0 0.00 0.00 0.00 39 1012.4
20260906202031 99 62 3.0 8.0 0.00 0.00 0.00 40 1012.5
20260906201529 100 107 4.0 10.0 0.00 0.00 0.00 39 1012.5
20260906201027 99 117 5.0 11.0 0.00 0.00 0.00 40 1012.5
20260906200525 99 87 4.0 7.0 0.00 0.00 0.00 40 1012.7
20260906200023 99 108 5.0 11.0 0.00 0.00 0.00 40 1012.8
20260906195521 99 81 5.0 11.0 0.00 0.00 0.00 41 1012.7
20260906195019 100 109 3.0 7.0 0.00 0.00 0.00 40 1012.7
20260906194517 100 129 5.0 12.0 0.00 0.00 0.00 40 1012.9
20260906194015 101 117 3.0 4.0 0.00 0.00 0.00 39 1012.9
20260906193533 100 153 3.0 9.0 0.00 0.00 0.00 40 1013.1
20260906193032 100 159 3.0 7.0 0.00 0.00 0.00 40 1013.2
20260906192529 98 181 2.0 6.0 0.00 0.00 0.00 43 1013.2
20260906192027 97 82 5.0 9.0 0.00 0.00 0.00 44 1013.3
20260906191525 97 79 5.0 11.0 0.00 0.00 0.00 43 1013.2
20260906191023 98 96 5.0 11.0 0.00 0.00 0.00 44 1013.2
20260906190541 98 96 6.0 12.0 0.00 0.00 0.00 44 1013.2
20260906190019 97 99 4.0 9.0 0.00 0.00 0.00 44 1013.3
20260906185559 99 97 4.0 10.0 0.00 0.00 0.00 43 1013.4
20260906185016 98 193 2.0 7.0 0.00 0.00 0.00 44 1013.5
20260906184534 98 95 6.0 13.0 0.00 0.00 0.00 44 1013.6
20260906184152 99 113 4.0 10.0 0.00 0.00 0.00 42 1013.6
20260906183530 99 134 3.0 8.0 0.00 0.00 0.00 43 1013.7
20260906183027 97 100 4.0 10.0 0.00 0.00 0.00 43 1013.7
20260906182524 97 97 4.0 10.0 0.00 0.00 0.00 45 1013.6
20260906182023 99 113 3.0 12.0 0.00 0.00 0.00 43 1013.7
20260906181521 99 182 4.0 9.0 0.00 0.00 0.00 43 1013.8
20260906181039 99 186 3.0 6.0 0.00 0.00 0.00 43 1013.9
20260906180517 99 187 2.0 8.0 0.00 0.00 0.00 43 1014.1
20260906180055 98 176 3.0 7.0 0.00 0.00 0.00 44 1014.1
20260906175553 96 148 3.0 7.0 0.00 0.00 0.00 46 1014.1
20260906175031 96 97 4.0 9.0 0.00 0.00 0.00 47 1014.4
20260906174529 96 100 4.0 11.0 0.00 0.00 0.00 47 1014.5
20260906174027 96 85 4.0 10.0 0.00 0.00 0.00 46 1014.6
20260906173525 96 119 3.0 11.0 0.00 0.00 0.00 46 1014.7
20260906173024 94 84 5.0 9.0 0.00 0.00 0.00 48 1014.7
20260906172523 94 87 8.0 14.0 0.00 0.00 0.00 49 1014.7
20260906172019 95 95 5.0 14.0 0.00 0.00 0.00 47 1014.8
20260906171518 96 117 5.0 10.0 0.00 0.00 0.00 46 1014.8
20260906171016 96 136 3.0 9.0 0.00 0.00 0.00 47 1014.8
20260906170534 96 131 2.0 5.0 0.00 0.00 0.00 47 1014.8
20260906170032 95 135 3.0 7.0 0.00 0.00 0.00 49 1014.8
20260906165530 94 128 3.0 7.0 0.00 0.00 0.00 49 1014.9
20260906165028 95 105 4.0 7.0 0.00 0.00 0.00 49 1015.1
20260906164526 94 108 3.0 8.0 0.00 0.00 0.00 50 1015.2
20260906164104 93 96 3.0 7.0 0.00 0.00 0.00 52 1015.2
20260906163522 94 74 5.0 9.0 0.00 0.00 0.00 52 1015.2
20260906163020 95 82 4.0 10.0 0.00 0.00 0.00 51 1015.1
20260906162518 94 117 3.0 6.0 0.00 0.00 0.00 50 1015.0
20260906162016 94 140 4.0 8.0 0.00 0.00 0.00 50 1015.1
20260906161534 93 81 4.0 6.0 0.00 0.00 0.00 51 1015.2
20260906161052 93 82 5.0 10.0 0.00 0.00 0.00 52 1015.3
20260906160531 94 101 3.0 7.0 0.00 0.00 0.00 53 1015.0
20260906160028 94 140 3.0 7.0 0.00 0.00 0.00 52 1015.1
20260906155546 94 159 2.0 8.0 0.00 0.00 0.00 53 1015.0
20260906155024 93 120 2.0 6.0 0.00 0.00 0.00 55 1015.1
20260906154522 93 68 3.0 6.0 0.00 0.00 0.00 56 1015.0
20260906154020 93 107 2.0 5.0 0.00 0.00 0.00 56 1015.0
20260906153538 93 106 2.0 5.0 0.00 0.00 0.00 56 1015.0
20260906153016 93 178 2.0 6.0 0.00 0.00 0.00 56 1015.0
20260906152534 93 233 1.0 4.0 0.00 0.00 0.00 57 1014.8
20260906152032 92 133 2.0 4.0 0.00 0.00 0.00 58 1014.8
20260906151531 91 159 1.0 4.0 0.00 0.00 0.00 59 1014.9
20260906151029 91 141 2.0 5.0 0.00 0.00 0.00 58 1014.6
20260906150527 90 143 2.0 4.0 0.00 0.00 0.00 60 1014.6
20260906150025 91 99 2.0 4.0 0.00 0.00 0.00 60 1014.5
20260906145603 90 212 1.0 5.0 0.00 0.00 0.00 61 1014.5
20260906145020 90 188 2.0 4.0 0.00 0.00 0.00 61 1014.5
20260906144518 90 138 2.0 3.0 0.00 0.00 0.00 61 1014.5
20260906144036 89 101 1.0 4.0 0.00 0.00 0.00 62 1014.5
20260906143534 88 113 1.0 5.0 0.00 0.00 0.00 63 1014.8
20260906143032 89 81 2.0 5.0 0.00 0.00 0.00 63 1014.8
20260906142549 88 92 1.0 3.0 0.00 0.00 0.00 64 1014.7
20260906142048 88 95 1.0 3.0 0.00 0.00 0.00 64 1014.8
20260906141546 87 117 2.0 3.0 0.00 0.00 0.00 65 1014.7
20260906141025 86 71 2.0 4.0 0.00 0.00 0.00 68 1014.6
20260906140522 86 75 2.0 4.0 0.00 0.00 0.00 67 1014.7
20260906140020 86 86 1.0 4.0 0.00 0.00 0.00 67 1014.6
20260906135538 86 77 1.0 3.0 0.00 0.00 0.00 68 1014.5
20260906135016 85 85 1.0 4.0 0.00 0.00 0.00 69 1014.6
20260906134535 85 79 2.0 5.0 0.00 0.00 0.00 69 1014.6
20260906134033 85 112 1.0 3.0 0.00 0.00 0.00 70 1014.7
20260906133531 84 83 2.0 5.0 0.00 0.00 0.00 71 1014.6
20260906133029 83 144 2.0 5.0 0.00 0.00 0.00 72 1014.6
20260906132607 83 122 2.0 4.0 0.00 0.00 0.00 73 1014.5
20260906132025 83 108 2.0 4.0 0.00 0.00 0.00 74 1014.5
20260906131523 82 119 2.0 5.0 0.00 0.00 0.00 75 1014.5
20260906131020 81 147 1.0 4.0 0.00 0.00 0.00 77 1014.4
20260906130558 80 158 2.0 4.0 0.00 0.00 0.00 79 1014.4
20260906130017 80 200 2.0 4.0 0.00 0.00 0.00 79 1014.4
20260906125534 80 188 1.0 4.0 0.00 0.00 0.00 80 1014.5
20260906125032 79 156 2.0 3.0 0.00 0.00 0.00 81 1014.4
20260906124530 79 120 2.0 4.0 0.00 0.00 0.00 82 1014.4
20260906124108 78 138 1.0 3.0 0.00 0.00 0.00 82 1014.3
20260906123545 78 154 1.0 3.0 0.00 0.00 0.00 82 1014.2
20260906123024 78 130 1.0 3.0 0.00 0.00 0.00 83 1014.1
20260906122522 78 178 1.0 3.0 0.00 0.00 0.00 83 1014.2
20260906122019 78 110 1.0 3.0 0.00 0.00 0.00 84 1014.0
20260906121517 78 124 0.0 2.0 0.00 0.00 0.00 84 1014.1
20260906121015 78 141 1.0 3.0 0.00 0.00 0.00 83 1014.2
20260906120553 78 154 1.0 4.0 0.00 0.00 0.00 83 1014.0
20260906120032 78 12 1.0 3.0 0.00 0.00 0.00 83 1013.9
20260906115531 78 17 2.0 3.0 0.00 0.00 0.00 83 1013.8
20260906115028 78 71 1.0 3.0 0.00 0.00 0.00 83 1013.8
20260906114526 78 71 1.0 2.0 0.00 0.00 0.00 82 1013.8
20260906114044 78 107 1.0 2.0 0.00 0.00 0.00 82 1013.8
20260906113522 78 113 1.0 3.0 0.00 0.00 0.00 82 1013.7
20260906113020 78 101 1.0 2.0 0.00 0.00 0.00 82 1013.7
20260906112518 78 118 1.0 3.0 0.00 0.00 0.00 82 1013.6
20260906112016 78 82 1.0 3.0 0.00 0.00 0.00 81 1013.6
20260906111554 79 0.0 2.0 0.00 0.00 0.00 81 1013.6
20260906111032 79 144 1.0 2.0 0.00 0.00 0.00 80 1013.6
20260906110530 79 101 1.0 4.0 0.00 0.00 0.00 80 1013.5
20260906110028 79 30 2.0 4.0 0.00 0.00 0.00 80 1013.5
20260906105526 79 83 1.0 3.0 0.00 0.00 0.00 80 1013.3
20260906105024 79 175 0.0 3.0 0.00 0.00 0.00 79 1013.2
20260906104542 79 195 1.0 3.0 0.00 0.00 0.00 80 1013.3
20260906104020 79 159 1.0 3.0 0.00 0.00 0.00 80 1013.2
20260906103518 79 0.0 0.0 0.00 0.00 0.00 80 1013.3
20260906103016 79 0.0 0.0 0.00 0.00 0.00 80 1013.3
20260906102534 79 0.0 0.0 0.00 0.00 0.00 80 1013.3
20260906102033 79 0.0 0.0 0.00 0.00 0.00 79 1013.2
20260906101531 79 0.0 0.0 0.00 0.00 0.00 79 1013.3
20260906101029 80 0.0 0.0 0.00 0.00 0.00 78 1013.2
20260906100608 80 0.0 1.0 0.00 0.00 0.00 78 1013.1
20260906100026 80 0.0 0.0 0.00 0.00 0.00 78 1013.1
20260906095544 80 0.0 0.0 0.00 0.00 0.00 78 1013.1
20260906095022 80 0.0 0.0 0.00 0.00 0.00 78 1012.9
20260906094521 80 0.0 0.0 0.00 0.00 0.00 78 1013.1
20260906094019 80 0.0 0.0 0.00 0.00 0.00 78 1012.9
20260906093557 80 0.0 0.0 0.00 0.00 0.00 77 1012.8
20260906093035 80 15 0.0 2.0 0.00 0.00 0.00 76 1012.8
20260906092533 81 5 0.0 1.0 0.00 0.00 0.00 76 1012.8
20260906092032 81 102 0.0 2.0 0.00 0.00 0.00 76 1012.7
20260906091550 81 137 0.0 2.0 0.00 0.00 0.00 75 1012.7
20260906091028 81 147 0.0 2.0 0.00 0.00 0.00 75 1012.7
20260906090527 81 156 0.0 2.0 0.00 0.00 0.00 75 1012.5
20260906090025 81 164 1.0 2.0 0.00 0.00 0.00 74 1012.5
20260906085543 82 157 1.0 2.0 0.00 0.00 0.00 74 1012.5
20260906085022 82 168 1.0 3.0 0.00 0.00 0.00 74 1012.5
20260906084520 82 171 1.0 2.0 0.00 0.00 0.00 73 1012.4
20260906084018 82 164 1.0 2.0 0.00 0.00 0.00 73 1012.6
20260906083536 82 170 1.0 3.0 0.00 0.00 0.00 73 1012.7
20260906083055 82 172 1.0 3.0 0.00 0.00 0.00 73 1012.6
20260906082533 82 153 1.0 3.0 0.00 0.00 0.00 72 1012.7
20260906082031 82 199 1.0 3.0 0.00 0.00 0.00 72 1012.5
20260906081530 83 248 0.0 3.0 0.00 0.00 0.00 72 1012.5
20260906081048 83 224 1.0 4.0 0.00 0.00 0.00 71 1012.4
20260906080527 83 205 1.0 3.0 0.00 0.00 0.00 71 1012.6
20260906080025 83 224 1.0 3.0 0.00 0.00 0.00 71 1012.6
20260906075524 83 204 1.0 4.0 0.00 0.00 0.00 71 1012.7
20260906075022 83 215 1.0 3.0 0.00 0.00 0.00 71 1012.9
20260906074540 83 193 2.0 4.0 0.00 0.00 0.00 71 1013.1
20260906074118 83 192 1.0 3.0 0.00 0.00 0.00 71 1013.0
20260906073517 83 187 1.0 4.0 0.00 0.00 0.00 71 1012.9
20260906073055 83 208 1.0 3.0 0.00 0.00 0.00 70 1013.0
20260906072533 83 189 1.0 3.0 0.00 0.00 0.00 70 1013.1
20260906072051 84 149 1.0 3.0 0.00 0.00 0.00 70 1013.0
20260906071529 84 146 1.0 3.0 0.00 0.00 0.00 70 1012.9
20260906071027 84 182 2.0 4.0 0.00 0.00 0.00 70 1012.7
20260906070525 84 170 1.0 3.0 0.00 0.00 0.00 69 1012.7
20260906070023 84 203 1.0 3.0 0.00 0.00 0.00 69 1012.8
20260906065521 84 190 1.0 3.0 0.00 0.00 0.00 69 1012.8
20260906065059 84 184 1.0 3.0 0.00 0.00 0.00 69 1013.0
20260906064517 85 198 1.0 4.0 0.00 0.00 0.00 68 1013.1
20260906064035 84 227 1.0 3.0 0.00 0.00 0.00 69 1013.1
20260906063533 85 221 1.0 2.0 0.00 0.00 0.00 68 1013.2
20260906063032 85 212 1.0 3.0 0.00 0.00 0.00 68 1013.2
20260906062531 85 228 1.0 4.0 0.00 0.00 0.00 67 1013.1
20260906062029 85 217 1.0 3.0 0.00 0.00 0.00 67 1013.0
20260906061528 85 214 1.0 3.0 0.00 0.00 0.00 67 1013.0
20260906061026 85 232 2.0 5.0 0.00 0.00 0.00 68 1013.0
20260906060524 85 224 1.0 4.0 0.00 0.00 0.00 68 1013.1
20260906060022 85 206 1.0 4.0 0.00 0.00 0.00 68 1013.1
20260906055520 85 200 1.0 5.0 0.00 0.00 0.00 67 1013.1
20260906055018 85 237 0.0 2.0 0.00 0.00 0.00 67 1013.0
20260906054517 86 209 1.0 3.0 0.00 0.00 0.00 67 1013.0
20260906054055 86 190 1.0 3.0 0.00 0.00 0.00 67 1012.9
20260906053533 86 208 1.0 3.0 0.00 0.00 0.00 66 1012.9
20260906053031 86 187 1.0 3.0 0.00 0.00 0.00 67 1013.0
20260906052529 86 185 1.0 3.0 0.00 0.00 0.00 66 1013.1
20260906052027 86 183 1.0 4.0 0.00 0.00 0.00 66 1013.2
20260906051525 86 174 2.0 4.0 0.00 0.00 0.00 65 1013.1
20260906051023 86 186 2.0 5.0 0.00 0.00 0.00 65 1013.1
20260906050522 86 187 2.0 3.0 0.00 0.00 0.00 65 1013.1
20260906050040 86 189 2.0 4.0 0.00 0.00 0.00 65 1013.0
20260906045517 86 187 2.0 4.0 0.00 0.00 0.00 64 1013.1
20260906045016 87 189 2.0 4.0 0.00 0.00 0.00 64 1013.1
20260906044554 87 202 2.0 3.0 0.00 0.00 0.00 64 1013.0
20260906044032 87 182 1.0 3.0 0.00 0.00 0.00 63 1013.0
20260906043531 87 185 2.0 4.0 0.00 0.00 0.00 63 1013.1
20260906043049 87 200 2.0 4.0 0.00 0.00 0.00 63 1012.9
20260906042526 87 184 2.0 4.0 0.00 0.00 0.00 63 1012.7
20260906042044 87 193 2.0 6.0 0.00 0.00 0.00 62 1012.7
20260906041523 87 178 2.0 6.0 0.00 0.00 0.00 62 1012.9
20260906041021 88 177 2.0 6.0 0.00 0.00 0.00 61 1012.9
20260906040519 88 201 2.0 4.0 0.00 0.00 0.00 61 1012.8
20260906040017 88 201 2.0 6.0 0.00 0.00 0.00 61 1012.7
20260906035515 88 206 2.0 6.0 0.00 0.00 0.00 61 1012.9
20260906035033 88 187 2.0 6.0 0.00 0.00 0.00 60 1012.9
20260906034532 88 184 2.0 5.0 0.00 0.00 0.00 60 1012.9
20260906034029 88 192 1.0 6.0 0.00 0.00 0.00 60 1013.0
20260906033528 88 186 2.0 6.0 0.00 0.00 0.00 59 1012.9
20260906033026 88 179 2.0 4.0 0.00 0.00 0.00 59 1013.0
20260906032523 88 187 2.0 5.0 0.00 0.00 0.00 59 1013.0
20260906032021 89 185 1.0 4.0 0.00 0.00 0.00 59 1012.9
20260906031519 89 157 3.0 10.0 0.00 0.00 0.00 58 1012.9
20260906031037 89 163 3.0 6.0 0.00 0.00 0.00 58 1013.0
20260906030535 89 172 2.0 8.0 0.00 0.00 0.00 57 1012.9
20260906030053 89 155 4.0 7.0 0.00 0.00 0.00 57 1013.0
20260906025531 89 174 3.0 7.0 0.00 0.00 0.00 57 1012.9
20260906025029 89 166 3.0 8.0 0.00 0.00 0.00 57 1012.9
20260906024547 89 179 2.0 6.0 0.00 0.00 0.00 57 1012.8
20260906024025 89 149 2.0 5.0 0.00 0.00 0.00 56 1012.9
20260906023523 90 160 3.0 7.0 0.00 0.00 0.00 56 1012.8
20260906023022 90 167 3.0 7.0 0.00 0.00 0.00 55 1012.6
20260906022520 90 159 3.0 6.0 0.00 0.00 0.00 55 1012.6
20260906022019 90 182 2.0 6.0 0.00 0.00 0.00 54 1012.3
20260906021536 91 145 4.0 9.0 0.00 0.00 0.00 54 1012.3
20260906021034 91 145 3.0 8.0 0.00 0.00 0.00 53 1012.3
20260906020553 91 150 3.0 10.0 0.00 0.00 0.00 53 1012.3
20260906020031 92 144 4.0 7.0 0.00 0.00 0.00 52 1012.2
20260906015529 92 166 3.0 7.0 0.00 0.00 0.00 52 1011.9
20260906015028 92 177 3.0 8.0 0.00 0.00 0.00 51 1011.9
20260906014526 93 153 4.0 12.0 0.00 0.00 0.00 49 1011.8
20260906014024 93 137 4.0 10.0 0.00 0.00 0.00 48 1011.7
20260906013542 94 110 6.0 13.0 0.00 0.00 0.00 46 1011.5
20260906013020 94 130 3.0 10.0 0.00 0.00 0.00 43 1011.3
20260906012518 95 113 1.0 4.0 0.00 0.00 0.00 43 1011.2
20260906012016 95 101 2.0 4.0 0.00 0.00 0.00 43 1011.3
20260906011535 95 108 3.0 5.0 0.00 0.00 0.00 43 1011.2
20260906011113 95 107 3.0 5.0 0.00 0.00 0.00 42 1011.2
20260906010531 95 116 2.0 5.0 0.00 0.00 0.00 42 1011.2
20260906010029 96 119 3.0 6.0 0.00 0.00 0.00 41 1011.2
20260906005527 96 120 1.0 5.0 0.00 0.00 0.00 41 1011.1
20260906005025 96 110 3.0 5.0 0.00 0.00 0.00 41 1011.2
20260906004523 96 113 3.0 6.0 0.00 0.00 0.00 40 1011.2
20260906004022 96 103 3.0 5.0 0.00 0.00 0.00 40 1011.2
20260906003519 97 97 2.0 4.0 0.00 0.00 0.00 40 1011.1
20260906003017 97 108 2.0 5.0 0.00 0.00 0.00 39 1011.2
20260906002516 97 109 3.0 6.0 0.00 0.00 0.00 39 1011.1
20260906002054 97 93 3.0 8.0 0.00 0.00 0.00 39 1011.2
20260906001532 98 116 2.0 6.0 0.00 0.00 0.00 39 1011.2
20260906001050 98 123 2.0 5.0 0.00 0.00 0.00 39 1011.2
20260906000528 97 113 2.0 5.0 0.00 0.00 0.00 39 1011.0
20260906000026 98 85 4.0 8.0 0.00 0.00 0.00 39 1011.0
20260905235524 98 100 3.0 5.0 0.00 0.00 0.00 38 1011.0